Date String (YYYY-MM-DD hh:mm:ss) UTC,Instrument flags,Ambient pressure (hPa),Sample flow (lpm),Bypass flow (lpm),Sample temperature (°C),Ambient temperature (°C),ASC tube jacket temperature (°C),LED temperature (°C),Box temperature (°C),Sample RH (%),Span deviation,Mass concentration (μg/m³),Mass concentration (μg/m³),Mass concentration (μg/m³)
DateTimeUTC,F1_M11,P_M11,Q1_M11,Q2_M11,T1_M11,T2_M11,T3_M11,T4_M11,T5_M11,U1_M11,ZSPAN_M11,X2_M11,X0_M11,X1_M11
2023-01-14 22:00:00,,0815.4,5.01,0.00,26.7,25.3,00.0,35.5,28.4,10.0,0000.0,0000.44,0000.65,0000.36
2023-01-14 22:01:00,,0815.4,5.00,0.00,26.7,25.3,00.0,35.5,28.5,09.9,0000.0,0000.45,0000.67,0000.36
2023-01-14 22:02:00,,0815.4,5.00,0.00,26.7,25.3,00.0,35.5,28.4,09.9,0000.0,0000.45,0000.67,0000.37
2023-01-14 22:03:00,,0815.4,4.99,0.00,26.7,25.4,00.0,35.5,28.4,09.6,0000.0,0000.45,0000.65,0000.37
2023-01-14 22:04:00,,0815.7,5.00,0.00,26.7,25.4,00.0,35.5,28.5,09.7,0000.0,0000.46,0000.67,0000.37
2023-01-14 22:05:00,,0815.8,5.00,0.00,26.7,25.4,00.0,35.5,28.5,09.7,0000.0,0000.47,0000.75,0000.37
2023-01-14 22:06:00,,0815.4,5.02,0.00,26.7,25.4,00.0,35.5,28.5,09.5,0000.0,0000.48,0000.77,0000.40
2023-01-14 22:07:00,,0815.4,4.99,0.00,26.7,25.4,00.0,35.5,28.6,09.7,0000.0,0000.49,0000.77,0000.41
2023-01-14 22:08:00,,0815.4,5.00,0.00,26.7,25.4,00.0,35.5,28.6,09.6,0000.0,0000.50,0000.78,0000.42
2023-01-14 22:09:00,,0815.5,5.00,0.00,26.7,25.5,00.0,35.5,28.6,09.8,0000.0,0000.51,0000.78,0000.44
2023-01-14 22:10:00,,0815.5,4.99,0.00,26.7,25.4,00.0,35.5,28.6,10.5,0000.0,0000.61,0001.06,0000.50
2023-01-14 22:11:00,,0815.4,5.01,0.00,26.7,25.4,00.0,35.5,28.5,10.6,0000.0,0000.74,0001.26,0000.61
2023-01-14 22:12:00,,0815.5,4.98,0.00,26.7,25.4,00.0,35.5,28.5,10.7,0000.0,0000.91,0001.48,0000.74
2023-01-14 22:13:00,,0815.4,4.99,0.00,26.7,25.4,00.0,35.5,28.5,11.0,0000.0,0001.12,0001.79,0000.88
2023-01-14 22:14:00,,0815.4,5.00,0.00,26.7,25.3,00.0,35.5,28.5,10.8,0000.0,0001.27,0002.00,0001.00
2023-01-14 22:15:00,,0815.4,4.99,0.00,26.7,25.3,00.0,35.5,28.5,11.0,0000.0,0001.41,0002.18,0001.13
2023-01-14 22:16:00,,0815.4,5.01,0.00,26.7,25.4,00.0,35.5,28.5,11.2,0000.0,0001.55,0002.36,0001.23
2023-01-14 22:17:00,,0815.5,4.98,0.00,26.7,25.3,00.0,35.6,28.5,11.2,0000.0,0001.70,0002.69,0001.32
2023-01-14 22:18:00,,0815.5,5.02,0.00,26.7,25.2,00.0,35.5,28.5,11.3,0000.0,0001.82,0002.86,0001.43
2023-01-14 22:19:00,,0815.6,4.98,0.00,26.7,25.2,00.0,35.6,28.5,11.3,0000.0,0002.02,0003.17,0001.54
2023-01-14 22:20:00,,0816.0,5.00,0.00,26.7,25.3,00.0,35.6,28.5,11.3,0000.0,0002.17,0003.42,0001.66
2023-01-14 22:21:00,,0815.9,4.99,0.00,26.7,25.2,00.0,35.5,28.5,11.5,0000.0,0002.26,0003.41,0001.72
2023-01-14 22:22:00,,0816.1,4.99,0.00,26.7,25.3,00.0,35.5,28.5,11.6,0000.0,0002.33,0003.56,0001.72
2023-01-14 22:23:00,,0816.1,5.00,0.00,26.7,25.3,00.0,35.5,28.5,11.4,0000.0,0002.35,0003.83,0001.69
2023-01-14 22:24:00,,0816.0,5.00,0.00,26.7,25.4,00.0,35.5,28.5,11.6,0000.0,0002.34,0004.20,0001.66
2023-01-14 22:25:00,,0816.1,4.99,0.00,26.7,25.4,00.0,35.5,28.5,11.4,0000.0,0002.37,0004.63,0001.65
2023-01-14 22:26:00,,0815.6,5.00,0.00,26.7,25.5,00.0,35.5,28.6,11.2,0000.0,0002.33,0005.52,0001.60
2023-01-14 22:27:00,,0815.7,5.01,0.00,26.8,25.5,00.0,35.6,28.6,11.2,0000.0,0002.29,0005.99,0001.57
2023-01-14 22:28:00,,0815.7,5.01,0.00,26.8,25.6,00.0,35.6,28.6,11.5,0000.0,0002.24,0005.94,0001.53
2023-01-14 22:29:00,,0815.7,4.99,0.00,26.8,25.6,00.0,35.6,28.6,11.7,0000.0,0002.25,0007.34,0001.48
2023-01-14 22:30:00,,0815.7,5.00,0.00,26.8,25.7,00.0,35.6,28.6,11.4,0000.0,0002.16,0007.55,0001.41
2023-01-14 22:31:00,,0815.7,5.00,0.00,26.8,25.7,00.0,35.6,28.6,11.5,0000.0,0002.13,0008.19,0001.34
2023-01-14 22:32:00,,0815.7,4.99,0.00,26.8,25.7,00.0,35.6,28.7,11.0,0000.0,0002.07,0008.15,0001.27
2023-01-14 22:33:00,,0815.7,5.00,0.00,26.9,25.7,00.0,35.6,28.7,10.8,0000.0,0001.99,0008.09,0001.23
2023-01-14 22:34:00,,0815.6,5.00,0.00,26.9,25.7,00.0,35.6,28.7,10.4,0000.0,0001.83,0007.88,0001.16
2023-01-14 22:35:00,,0815.9,4.99,0.00,26.9,25.7,00.0,35.6,28.7,10.1,0000.0,0001.68,0008.12,0001.07
2023-01-14 22:36:00,,0816.0,5.00,0.00,26.9,25.7,00.0,35.6,28.7,10.2,0000.0,0001.51,0008.03,0000.98
2023-01-14 22:37:00,,0816.1,5.00,0.00,26.9,25.8,00.0,35.7,28.7,09.9,0000.0,0001.41,0007.44,0000.91
2023-01-14 22:38:00,,0816.1,5.00,0.00,27.0,25.8,00.0,35.7,28.8,09.6,0000.0,0001.36,0006.84,0000.86
2023-01-14 22:39:00,,0816.1,5.01,0.00,27.0,25.8,00.0,35.7,28.8,09.5,0000.0,0001.27,0006.56,0000.82
2023-01-14 22:40:00,,0815.6,5.00,0.00,27.0,25.8,00.0,35.7,28.8,09.6,0000.0,0001.16,0004.89,0000.76
2023-01-14 22:41:00,,0815.6,5.00,0.00,27.0,25.8,00.0,35.7,28.8,09.8,0000.0,0001.14,0004.58,0000.75
2023-01-14 22:42:00,,0815.7,5.01,0.00,27.0,25.8,00.0,35.7,28.8,09.8,0000.0,0001.05,0003.20,0000.72
2023-01-14 22:43:00,,0815.9,5.00,0.00,27.0,25.9,00.0,35.7,28.9,09.7,0000.0,0001.00,0003.15,0000.67
2023-01-14 22:44:00,,0816.1,4.99,0.00,27.0,25.9,00.0,35.8,28.9,09.9,0000.0,0000.88,0002.93,0000.62
2023-01-14 22:45:00,,0815.9,5.00,0.00,27.1,25.9,00.0,35.8,28.9,10.1,0000.0,0000.85,0002.88,0000.59
2023-01-14 22:46:00,,0816.0,5.00,0.00,27.1,25.8,00.0,35.8,28.9,09.7,0000.0,0000.80,0001.76,0000.57
2023-01-14 22:47:00,,0816.0,4.99,0.00,27.1,25.8,00.0,35.8,28.9,09.8,0000.0,0000.77,0001.30,0000.56
2023-01-14 22:48:00,,0816.0,5.00,0.00,27.1,25.9,00.0,35.8,28.9,09.8,0000.0,0000.74,0001.25,0000.55
2023-01-14 22:49:00,,0815.7,5.00,0.00,27.1,25.9,00.0,35.8,28.9,09.7,0000.0,0000.69,0001.14,0000.51
2023-01-14 22:50:00,,0816.1,5.00,0.00,27.1,25.9,00.0,35.8,28.9,09.6,0000.0,0000.65,0001.05,0000.49
2023-01-14 22:51:00,,0816.0,5.00,0.00,27.1,25.9,00.0,35.8,28.9,09.6,0000.0,0000.62,0001.02,0000.47
2023-01-14 22:52:00,,0816.1,5.00,0.00,27.1,25.9,00.0,35.9,28.9,09.8,0000.0,0000.55,0000.84,0000.43
2023-01-14 22:53:00,,0816.1,4.99,0.00,27.1,25.8,00.0,35.9,28.9,09.6,0000.0,0000.49,0000.72,0000.40
2023-01-14 22:54:00,,0816.1,4.99,0.00,27.1,25.8,00.0,35.9,28.9,10.1,0000.0,0000.42,0000.56,0000.38
2023-01-14 22:55:00,,0816.2,5.02,0.00,27.1,25.8,00.0,35.9,28.9,10.3,0000.0,0000.39,0000.50,0000.37
2023-01-14 22:56:00,,0816.1,5.00,0.00,27.1,25.8,00.0,35.9,28.9,09.8,0000.0,0000.39,0000.49,0000.36
2023-01-14 22:57:00,,0816.0,4.99,0.00,27.1,25.8,00.0,35.9,28.9,09.7,0000.0,0000.39,0000.48,0000.36
2023-01-14 22:58:00,,0816.1,5.00,0.00,27.1,25.8,00.0,35.9,28.9,09.5,0000.0,0000.39,0000.50,0000.35
2023-01-14 22:59:00,,0816.0,5.00,0.00,27.1,25.8,00.0,35.9,28.9,09.5,0000.0,0000.41,0000.59,0000.36
